SL-8 DEB, 1549

Orbit data source: Space-Track

SL-8 DEB, 1549 is space debris in LEO originally from a launch on Mon, 15 Mar 1965 UTC launched from the Tyuratam Missile And Space Complex (TTMTR). Debris objects in space refer to the collection of defunct objects orbiting the Earth. Examples of debris include non-operational satellites, rocket bodies, and fragments generated from explosions, collisions, or faulty payload assembly.

Loading next visibility...
Identifier
1549, 1965-020CV
Orbit
LEO
Country
Flag of CISCIS
Related business
Manufacturer
Unknown
Mission
Spacecraft
Bus & Motor
Unknown
Mass
Unknown
Launch date (UTC)
1965-03-15 (61 years ago)
Launch vehicle
Unknown
Launch site
Tyuratam Missile And Space Complex (TTMTR)
Object type
Payload
Rocket body
Debris
Shape & HBR
Unknown shape, 0.1 m
Radar Cross Section
Medium (>0.1 m² and <1 m²)

Expand to show TLE details & history
Last TLE update: 12 hours ago

TLE from 12 hours ago
0 SL-8 DEB
1 01549U 65020CV  25293.57814011  .00000499  00000-0  79857-3 0  9991
2 01549  56.1622 234.7411 0842528 132.3991 235.1424 12.64284089784635
Epoch: 2025-10-20T13:52Z
TLE epoch observation values (Epoch: 2025-10-20T13:52:31.305Z)
Latitude
0.00001°
Longitude
-2.66777°
Altitude
1,815.811 km
Speed
6.791 km/s
True Right ascension
15h 38m 57s
True Declination
0° 00' 00"
Sunlit
Object was in daylight at epoch
Visualization orbit readout
Latitude
Unknown
Longitude
Unknown
Altitude
Unknown
Speed
Unknown
Apparent Right ascension
Unknown
Apparent Declination
Unknown
Sunlit
N/A
Visualization observer readout
Local Sidereal Time
21:08:39
Azimuth
Unknown
Elevation
Unknown
Doppler factor
Unknown
Orbital elements
Apogee altitude
2,060.878 km
Perigee altitude
749.356 km
Semi-major axis
7,783.254 km
Eccentricity
0.08425
Inclination
56.1622°
RAAN
234.7411°
Arg. of periapsis
132.3991°
True anomaly
227.69163°
Mean anomaly
235.1424°
Eccentric anomaly
231.37125°
Mean motion
3.16083 °/min
Orbital period
113.89 mins
BSTAR
0.00079857
Loading maneuver chart data...
Computing Atmospheric mass density...

Documentation

Showing up to 5 results
|